| time (UTC) | temp C | wind direction | speed KPH | gust KPH | rain 1hr cm | rain 24hr cm | rain mn cm | humidity % | barometer mb |
| 20260505233930 | 15 | 268 | 17.7 | 32.2 | 0.00 | 0.25 | 0.15 | 74 | 1015.4 |
| 20260505233437 | 15 | 277 | 16.1 | 32.2 | 0.00 | 0.25 | 0.15 | 74 | 1015.5 |
| 20260505232954 | 15 | 263 | 17.7 | 30.6 | 0.00 | 0.25 | 0.15 | 73 | 1015.5 |
| 20260505232421 | 16 | 257 | 19.3 | 32.2 | 0.00 | 0.25 | 0.15 | 74 | 1015.5 |
| 20260505231928 | 16 | 283 | 16.1 | 33.8 | 0.00 | 0.25 | 0.15 | 73 | 1015.4 |
| 20260505231435 | 16 | 314 | 14.5 | 32.2 | 0.00 | 0.25 | 0.15 | 73 | 1015.4 |
| 20260505230941 | 16 | 256 | 19.3 | 30.6 | 0.00 | 0.25 | 0.15 | 73 | 1015.3 |
| 20260505230443 | 16 | 242 | 17.7 | 33.8 | 0.00 | 0.25 | 0.15 | 73 | 1015.2 |
| 20260505225928 | 16 | 237 | 12.9 | 33.8 | 0.00 | 0.25 | 0.15 | 73 | 1015.3 |
| 20260505225433 | 16 | 268 | 19.3 | 35.4 | 0.00 | 0.25 | 0.15 | 71 | 1015.2 |
| 20260505224918 | 16 | 263 | 16.1 | 35.4 | 0.00 | 0.25 | 0.15 | 72 | 1015.4 |
| 20260505224423 | 16 | 252 | 20.9 | 35.4 | 0.00 | 0.25 | 0.15 | 72 | 1015.4 |
| 20260505223926 | 16 | 269 | 20.9 | 35.4 | 0.00 | 0.25 | 0.15 | 73 | 1015.4 |
| 20260505223433 | 16 | 282 | 20.9 | 33.8 | 0.00 | 0.25 | 0.15 | 73 | 1015.6 |
| 20260505222936 | 16 | 261 | 17.7 | 30.6 | 0.00 | 0.25 | 0.15 | 74 | 1015.4 |
| 20260505222441 | 16 | 287 | 14.5 | 32.2 | 0.00 | 0.25 | 0.15 | 74 | 1015.5 |
| 20260505221926 | 15 | 249 | 14.5 | 32.2 | 0.00 | 0.25 | 0.15 | 75 | 1015.6 |
| 20260505221433 | 15 | 250 | 17.7 | 29.0 | 0.00 | 0.25 | 0.15 | 75 | 1015.7 |
| 20260505220942 | 16 | 251 | 16.1 | 27.4 | 0.00 | 0.25 | 0.15 | 75 | 1015.8 |
| 20260505220447 | 16 | 247 | 19.3 | 27.4 | 0.00 | 0.25 | 0.15 | 74 | 1015.8 |
| 20260505215928 | 16 | 252 | 11.3 | 24.1 | 0.00 | 0.25 | 0.15 | 75 | 1015.9 |
| 20260505215432 | 15 | 259 | 16.1 | 24.1 | 0.00 | 0.25 | 0.15 | 76 | 1015.8 |
| 20260505214935 | 15 | 275 | 12.9 | 27.4 | 0.00 | 0.25 | 0.15 | 75 | 1015.9 |
| 20260505214423 | 16 | 263 | 14.5 | 30.6 | 0.00 | 0.25 | 0.15 | 75 | 1016.0 |
| 20260505213930 | 15 | 287 | 14.5 | 30.6 | 0.00 | 0.25 | 0.15 | 74 | 1016.1 |
| 20260505213436 | 15 | 295 | 12.9 | 25.7 | 0.00 | 0.25 | 0.15 | 74 | 1016.1 |
| 20260505212918 | 15 | 268 | 12.9 | 24.1 | 0.00 | 0.25 | 0.15 | 74 | 1016.1 |
| 20260505212421 | 15 | 252 | 16.1 | 27.4 | 0.00 | 0.25 | 0.15 | 74 | 1016.1 |
| 20260505211928 | 16 | 243 | 16.1 | 25.7 | 0.00 | 0.25 | 0.15 | 74 | 1016.1 |
| 20260505211435 | 16 | 263 | 16.1 | 27.4 | 0.00 | 0.25 | 0.15 | 73 | 1016.1 |
| 20260505210921 | 16 | 256 | 12.9 | 24.1 | 0.00 | 0.25 | 0.15 | 73 | 1016.1 |
| 20260505210428 | 16 | 282 | 16.1 | 22.5 | 0.00 | 0.25 | 0.15 | 73 | 1016.1 |
| 20260505205934 | 16 | 219 | 12.9 | 24.1 | 0.00 | 0.25 | 0.15 | 73 | 1016.1 |
| 20260505205441 | 16 | 272 | 11.3 | 30.6 | 0.00 | 0.25 | 0.15 | 73 | 1016.0 |
| 20260505204922 | 15 | 282 | 16.1 | 29.0 | 0.00 | 0.25 | 0.15 | 73 | 1016.1 |
| 20260505204426 | 15 | 347 | 12.9 | 30.6 | 0.00 | 0.25 | 0.15 | 74 | 1016.1 |
| 20260505203932 | 15 | 259 | 19.3 | 32.2 | 0.00 | 0.25 | 0.15 | 73 | 1016.1 |
| 20260505203446 | 16 | 288 | 14.5 | 24.1 | 0.00 | 0.25 | 0.15 | 72 | 1016.1 |
| 20260505203001 | 16 | 268 | 16.1 | 24.1 | 0.00 | 0.25 | 0.15 | 72 | 1016.1 |
| 20260505202458 | 16 | 284 | 14.5 | 30.6 | 0.00 | 0.25 | 0.15 | 73 | 1016.1 |
| 20260505201923 | 16 | 284 | 17.7 | 33.8 | 0.00 | 0.25 | 0.15 | 72 | 1016.1 |
| 20260505201421 | 16 | 275 | 19.3 | 27.4 | 0.00 | 0.25 | 0.15 | 72 | 1016.1 |
| 20260505200927 | 16 | 249 | 17.7 | 29.0 | 0.00 | 0.25 | 0.15 | 71 | 1016.1 |
| 20260505200431 | 16 | 203 | 12.9 | 32.2 | 0.00 | 0.25 | 0.15 | 73 | 1016.0 |
| 20260505195919 | 16 | 268 | 17.7 | 32.2 | 0.00 | 0.25 | 0.15 | 73 | 1015.9 |
| 20260505195423 | 15 | 277 | 17.7 | 35.4 | 0.00 | 0.25 | 0.15 | 73 | 1016.2 |
| 20260505194928 | 15 | 265 | 22.5 | 35.4 | 0.00 | 0.25 | 0.15 | 73 | 1016.2 |
| 20260505194435 | 16 | 308 | 14.5 | 30.6 | 0.00 | 0.25 | 0.15 | 74 | 1016.1 |
| 20260505193934 | 15 | 239 | 17.7 | 30.6 | 0.00 | 0.25 | 0.15 | 74 | 1016.2 |
| 20260505193422 | 15 | 294 | 19.3 | 29.0 | 0.00 | 0.25 | 0.15 | 74 | 1016.2 |
| 20260505192929 | 15 | 258 | 16.1 | 30.6 | 0.00 | 0.25 | 0.15 | 74 | 1016.2 |
| 20260505192436 | 15 | 259 | 14.5 | 30.6 | 0.00 | 0.25 | 0.15 | 74 | 1016.2 |
| 20260505191926 | 15 | 289 | 14.5 | 25.7 | 0.00 | 0.25 | 0.15 | 74 | 1016.2 |
| 20260505191431 | 15 | 221 | 19.3 | 25.7 | 0.00 | 0.25 | 0.15 | 75 | 1016.2 |
| 20260505190937 | 15 | 261 | 16.1 | 25.7 | 0.00 | 0.25 | 0.15 | 74 | 1016.1 |
| 20260505190440 | 15 | 265 | 14.5 | 22.5 | 0.00 | 0.25 | 0.15 | 76 | 1016.0 |
| 20260505185917 | 15 | 235 | 11.3 | 27.4 | 0.00 | 0.25 | 0.15 | 76 | 1015.9 |
| 20260505185423 | 15 | 295 | 12.9 | 27.4 | 0.00 | 0.25 | 0.15 | 77 | 1015.9 |
| 20260505184931 | 15 | 300 | 14.5 | 29.0 | 0.00 | 0.25 | 0.15 | 77 | 1015.9 |
| 20260505184436 | 15 | 315 | 14.5 | 29.0 | 0.00 | 0.25 | 0.15 | 77 | 1015.9 |
| 20260505183923 | 15 | 282 | 11.3 | 27.4 | 0.00 | 0.25 | 0.15 | 77 | 1015.9 |
| 20260505183430 | 15 | 261 | 12.9 | 27.4 | 0.00 | 0.25 | 0.15 | 78 | 1015.9 |
| 20260505182936 | 15 | 283 | 11.3 | 30.6 | 0.00 | 0.25 | 0.15 | 78 | 1016.0 |
| 20260505182419 | 15 | 281 | 19.3 | 30.6 | 0.00 | 0.25 | 0.15 | 77 | 1016.1 |
| 20260505181953 | 15 | 263 | 12.9 | 25.7 | 0.00 | 0.25 | 0.15 | 77 | 1016.2 |
| 20260505181435 | 15 | 289 | 12.9 | 22.5 | 0.00 | 0.25 | 0.15 | 79 | 1016.1 |
| 20260505180952 | 15 | 265 | 9.7 | 20.9 | 0.00 | 0.25 | 0.15 | 80 | 1016.2 |
| 20260505180419 | 14 | 280 | 9.7 | 24.1 | 0.00 | 0.25 | 0.15 | 80 | 1016.0 |
| 20260505175943 | 14 | 314 | 8.0 | 24.1 | 0.00 | 0.25 | 0.15 | 81 | 1015.8 |
| 20260505175423 | 14 | 270 | 16.1 | 27.4 | 0.00 | 0.25 | 0.15 | 81 | 1015.8 |
| 20260505174930 | 13 | 275 | 16.1 | 27.4 | 0.00 | 0.25 | 0.15 | 81 | 1015.7 |
| 20260505174416 | 13 | 241 | 11.3 | 25.7 | 0.00 | 0.25 | 0.15 | 82 | 1015.7 |
| 20260505173925 | 13 | 290 | 14.5 | 27.4 | 0.00 | 0.25 | 0.15 | 83 | 1015.6 |
| 20260505173431 | 13 | 261 | 14.5 | 27.4 | 0.00 | 0.25 | 0.15 | 82 | 1015.7 |
| 20260505172919 | 13 | 270 | 17.7 | 22.5 | 0.00 | 0.25 | 0.15 | 83 | 1015.6 |
| 20260505172424 | 13 | 285 | 16.1 | 24.1 | 0.00 | 0.25 | 0.15 | 83 | 1015.5 |
| 20260505171932 | 13 | 274 | 14.5 | 22.5 | 0.00 | 0.25 | 0.15 | 83 | 1015.6 |
| 20260505171434 | 13 | 283 | 9.7 | 24.1 | 0.00 | 0.25 | 0.15 | 84 | 1015.6 |
| 20260505170941 | 13 | 323 | 14.5 | 24.1 | 0.00 | 0.25 | 0.15 | 84 | 1015.6 |
| 20260505170426 | 13 | 283 | 14.5 | 24.1 | 0.00 | 0.25 | 0.15 | 84 | 1015.5 |
| 20260505165933 | 13 | 249 | 16.1 | 24.1 | 0.00 | 0.25 | 0.15 | 85 | 1015.6 |
| 20260505165419 | 13 | 295 | 9.7 | 20.9 | 0.00 | 0.25 | 0.15 | 85 | 1015.6 |
| 20260505164944 | 13 | 280 | 12.9 | 20.9 | 0.00 | 0.25 | 0.15 | 85 | 1015.6 |
| 20260505164422 | 13 | 313 | 14.5 | 20.9 | 0.00 | 0.25 | 0.15 | 85 | 1015.6 |
| 20260505163931 | 13 | 270 | 9.7 | 25.7 | 0.00 | 0.25 | 0.15 | 85 | 1015.5 |
| 20260505163434 | 13 | 293 | 16.1 | 25.7 | 0.00 | 0.25 | 0.15 | 85 | 1015.6 |
| 20260505162919 | 13 | 256 | 11.3 | 20.9 | 0.00 | 0.25 | 0.15 | 86 | 1015.7 |
| 20260505162448 | 13 | 299 | 12.9 | 20.9 | 0.00 | 0.25 | 0.15 | 86 | 1015.6 |
| 20260505161933 | 13 | 268 | 12.9 | 20.9 | 0.00 | 0.25 | 0.15 | 85 | 1015.6 |
| 20260505161420 | 13 | 273 | 11.3 | 16.1 | 0.00 | 0.25 | 0.15 | 86 | 1015.5 |
| 20260505160924 | 13 | 289 | 8.0 | 16.1 | 0.00 | 0.25 | 0.15 | 86 | 1015.4 |
| 20260505160428 | 13 | 202 | 8.0 | 17.7 | 0.00 | 0.25 | 0.15 | 86 | 1015.4 |
| 20260505152924 | 12 | 268 | 11.3 | 22.5 | 0.00 | 0.25 | 0.15 | 86 | 1015.1 |
| 20260505152432 | 12 | 301 | 8.0 | 25.7 | 0.00 | 0.25 | 0.15 | 86 | 1015.1 |
| 20260505151920 | 12 | 348 | 16.1 | 27.4 | 0.00 | 0.25 | 0.15 | 85 | 1015.1 |
| 20260505151427 | 12 | 243 | 14.5 | 27.4 | 0.00 | 0.25 | 0.15 | 85 | 1015.1 |
| 20260505150933 | 12 | 297 | 9.7 | 17.7 | 0.00 | 0.25 | 0.15 | 85 | 1015.1 |
| 20260505150419 | 12 | 285 | 6.4 | 14.5 | 0.00 | 0.25 | 0.15 | 85 | 1015.0 |
| 20260505140419 | 12 | 215 | 6.4 | 17.7 | 0.00 | 0.25 | 0.15 | 84 | 1014.7 |
| 20260505124928 | 12 | 237 | 9.7 | 17.7 | 0.00 | 0.25 | 0.15 | 83 | 1014.3 |
| 20260505124434 | 12 | 275 | 9.7 | 25.7 | 0.00 | 0.25 | 0.15 | 83 | 1014.3 |
| 20260505123917 | 12 | 263 | 16.1 | 25.7 | 0.00 | 0.25 | 0.15 | 83 | 1014.4 |
| 20260505123445 | 12 | 261 | 12.9 | 20.9 | 0.00 | 0.25 | 0.15 | 83 | 1014.4 |
| 20260505122930 | 12 | 229 | 11.3 | 22.5 | 0.00 | 0.25 | 0.15 | 83 | 1014.3 |
| 20260505122417 | 12 | 273 | 11.3 | 22.5 | 0.00 | 0.25 | 0.15 | 83 | 1014.4 |
| 20260505121944 | 12 | 265 | 12.9 | 22.5 | 0.00 | 0.25 | 0.15 | 83 | 1014.3 |
| 20260505121457 | 12 | 221 | 11.3 | 24.1 | 0.00 | 0.25 | 0.15 | 83 | 1014.3 |
| 20260505120923 | 12 | 244 | 12.9 | 24.1 | 0.00 | 0.25 | 0.15 | 83 | 1014.4 |
| 20260505120427 | 12 | 264 | 14.5 | 24.1 | 0.00 | 0.25 | 0.15 | 82 | 1014.2 |
| 20260505115923 | 12 | 238 | 9.7 | 17.7 | 0.00 | 0.25 | 0.15 | 83 | 1014.3 |
| 20260505115431 | 12 | 254 | 9.7 | 17.7 | 0.00 | 0.25 | 0.15 | 83 | 1014.3 |
| 20260505114918 | 12 | 242 | 8.0 | 17.7 | 0.00 | 0.25 | 0.15 | 83 | 1014.3 |
| 20260505114425 | 12 | 245 | 9.7 | 19.3 | 0.00 | 0.25 | 0.15 | 82 | 1014.4 |
| 20260505113932 | 12 | 258 | 8.0 | 19.3 | 0.00 | 0.25 | 0.15 | 82 | 1014.4 |
| 20260505113420 | 12 | 229 | 8.0 | 16.1 | 0.00 | 0.25 | 0.15 | 82 | 1014.3 |
| 20260505112922 | 12 | 271 | 9.7 | 14.5 | 0.00 | 0.25 | 0.15 | 82 | 1014.6 |
| 20260505112428 | 12 | 303 | 4.8 | 14.5 | 0.00 | 0.25 | 0.15 | 82 | 1014.6 |
| 20260505111933 | 12 | 299 | 4.8 | 16.1 | 0.00 | 0.25 | 0.15 | 82 | 1014.6 |
| 20260505111421 | 12 | 268 | 9.7 | 17.7 | 0.00 | 0.25 | 0.15 | 81 | 1014.5 |
| 20260505110927 | 12 | 249 | 9.7 | 17.7 | 0.00 | 0.25 | 0.15 | 81 | 1014.4 |
| 20260505110436 | 12 | 242 | 8.0 | 19.3 | 0.00 | 0.25 | 0.15 | 81 | 1014.4 |
| 20260505101944 | 12 | 249 | 11.3 | 19.3 | 0.03 | 0.25 | 0.15 | 84 | 1014.4 |
| 20260505101426 | 12 | 284 | 9.7 | 20.9 | 0.03 | 0.25 | 0.15 | 84 | 1014.5 |
| 20260505100934 | 12 | 256 | 11.3 | 20.9 | 0.03 | 0.25 | 0.15 | 85 | 1014.5 |
| 20260505100448 | 12 | 268 | 8.0 | 12.9 | 0.03 | 0.25 | 0.15 | 85 | 1014.7 |
| 20260505100003 | 12 | 261 | 8.0 | 14.5 | 0.03 | 0.25 | 0.15 | 84 | 1014.7 |
| 20260505095457 | 12 | 263 | 6.4 | 17.7 | 0.03 | 0.25 | 0.15 | 85 | 1014.6 |
| 20260505094923 | 12 | 313 | 9.7 | 19.3 | 0.03 | 0.25 | 0.15 | 85 | 1014.7 |
| 20260505094425 | 12 | 289 | 11.3 | 22.5 | 0.03 | 0.25 | 0.15 | 85 | 1014.7 |
| 20260505093933 | 12 | 278 | 11.3 | 22.5 | 0.03 | 0.25 | 0.15 | 85 | 1014.7 |
| 20260505093420 | 12 | 244 | 11.3 | 20.9 | 0.03 | 0.23 | 0.13 | 85 | 1014.8 |
| 20260505092927 | 12 | 277 | 12.9 | 24.1 | 0.03 | 0.23 | 0.13 | 85 | 1014.8 |
| 20260505092435 | 12 | 270 | 12.9 | 24.1 | 0.03 | 0.23 | 0.13 | 85 | 1014.8 |
| 20260505091941 | 12 | 254 | 11.3 | 20.9 | 0.03 | 0.23 | 0.13 | 85 | 1015.0 |
| 20260505091427 | 12 | 242 | 9.7 | 20.9 | 0.03 | 0.23 | 0.13 | 85 | 1015.1 |
| 20260505090931 | 12 | 302 | 12.9 | 20.9 | 0.05 | 0.23 | 0.13 | 85 | 1015.2 |
| 20260505090418 | 12 | 268 | 8.0 | 16.1 | 0.05 | 0.23 | 0.13 | 85 | 1015.1 |
| 20260505085926 | 12 | 242 | 8.0 | 16.1 | 0.08 | 0.23 | 0.13 | 85 | 1015.0 |
| 20260505085433 | 12 | 263 | 6.4 | 17.7 | 0.08 | 0.23 | 0.13 | 85 | 1015.2 |
| 20260505084948 | 12 | 256 | 9.7 | 17.7 | 0.10 | 0.23 | 0.13 | 85 | 1015.2 |
| 20260505084433 | 12 | 249 | 9.7 | 20.9 | 0.10 | 0.23 | 0.13 | 85 | 1015.1 |
| 20260505083942 | 12 | 184 | 8.0 | 17.7 | 0.10 | 0.23 | 0.13 | 85 | 1015.2 |
| 20260505083423 | 12 | 209 | 9.7 | 17.7 | 0.10 | 0.20 | 0.10 | 85 | 1015.2 |
| 20260505082932 | 12 | 247 | 9.7 | 20.9 | 0.10 | 0.20 | 0.10 | 85 | 1015.1 |
| 20260505082419 | 12 | 242 | 9.7 | 20.9 | 0.10 | 0.20 | 0.10 | 85 | 1015.1 |
| 20260505081955 | 12 | 247 | 8.0 | 17.7 | 0.10 | 0.20 | 0.10 | 85 | 1015.1 |
| 20260505081418 | 12 | 239 | 8.0 | 16.1 | 0.10 | 0.20 | 0.10 | 85 | 1015.1 |
| 20260505080925 | 12 | 265 | 9.7 | 16.1 | 0.08 | 0.18 | 0.08 | 85 | 1015.2 |
| 20260505080431 | 12 | 190 | 6.4 | 14.5 | 0.08 | 0.18 | 0.08 | 85 | 1015.4 |
| 20260505075931 | 12 | 222 | 8.0 | 14.5 | 0.05 | 0.15 | 0.05 | 85 | 1015.5 |
| 20260505075418 | 11 | 252 | 6.4 | 14.5 | 0.05 | 0.15 | 0.05 | 85 | 1015.5 |
| 20260505074926 | 11 | 268 | 6.4 | 14.5 | 0.03 | 0.13 | 0.03 | 85 | 1015.4 |
| 20260505074429 | 11 | 268 | 8.0 | 16.1 | 0.03 | 0.13 | 0.03 | 84 | 1015.3 |
| 20260505073935 | 11 | 217 | 6.4 | 16.1 | 0.03 | 0.13 | 0.03 | 84 | 1015.3 |
| 20260505073451 | 11 | 231 | 6.4 | 12.9 | 0.00 | 0.10 | 0.00 | 84 | 1015.4 |
| 20260505072938 | 11 | 254 | 8.0 | 12.9 | 0.00 | 0.10 | 0.00 | 84 | 1015.6 |
| 20260505072421 | 11 | 244 | 6.4 | 12.9 | 0.00 | 0.10 | 0.00 | 84 | 1015.7 |
| 20260505071930 | 11 | 275 | 6.4 | 12.9 | 0.00 | 0.10 | 0.00 | 84 | 1015.9 |
| 20260505071418 | 11 | 297 | 4.8 | 14.5 | 0.03 | 0.10 | 0.00 | 84 | 1015.8 |
| 20260505070946 | 11 | 278 | 6.4 | 14.5 | 0.03 | 0.10 | 0.00 | 84 | 1015.8 |
| 20260505070433 | 11 | 295 | 4.8 | 14.5 | 0.03 | 0.10 | 0.00 | 84 | 1015.6 |
| 20260505065922 | 11 | 251 | 9.7 | 14.5 | 0.03 | 0.10 | 0.10 | 84 | 1015.6 |
| 20260505065457 | 11 | 224 | 8.0 | 14.5 | 0.05 | 0.10 | 0.10 | 84 | 1015.6 |
| 20260505064923 | 11 | 254 | 6.4 | 12.9 | 0.05 | 0.10 | 0.10 | 84 | 1015.4 |
| 20260505064428 | 11 | 282 | 6.4 | 16.1 | 0.05 | 0.10 | 0.10 | 83 | 1015.3 |
| 20260505063918 | 11 | 268 | 8.0 | 24.1 | 0.05 | 0.10 | 0.10 | 83 | 1015.1 |
| 20260505063426 | 11 | 289 | 12.9 | 24.1 | 0.05 | 0.10 | 0.10 | 83 | 1015.0 |
| 20260505062933 | 11 | 264 | 14.5 | 22.5 | 0.05 | 0.10 | 0.10 | 83 | 1014.9 |
| 20260505062422 | 11 | 271 | 14.5 | 24.1 | 0.05 | 0.10 | 0.10 | 82 | 1014.8 |
| 20260505061922 | 11 | 265 | 16.1 | 24.1 | 0.03 | 0.08 | 0.08 | 81 | 1014.9 |
| 20260505061430 | 11 | 280 | 12.9 | 24.1 | 0.05 | 0.08 | 0.08 | 81 | 1014.9 |
| 20260505060917 | 11 | 280 | 11.3 | 24.1 | 0.05 | 0.08 | 0.08 | 80 | 1015.1 |
| 20260505060424 | 11 | 304 | 12.9 | 20.9 | 0.05 | 0.08 | 0.08 | 80 | 1015.2 |
| 20260505055926 | 11 | 258 | 8.0 | 22.5 | 0.05 | 0.08 | 0.08 | 80 | 1015.4 |
| 20260505055434 | 11 | 261 | 9.7 | 22.5 | 0.05 | 0.05 | 0.05 | 79 | 1015.4 |
| 20260505054940 | 11 | 283 | 12.9 | 22.5 | 0.05 | 0.05 | 0.05 | 80 | 1015.4 |
| 20260505054422 | 11 | 273 | 9.7 | 16.1 | 0.05 | 0.05 | 0.05 | 81 | 1015.4 |
| 20260505053924 | 12 | 278 | 9.7 | 16.1 | 0.05 | 0.05 | 0.05 | 81 | 1015.3 |
| 20260505053433 | 12 | 256 | 9.7 | 17.7 | 0.05 | 0.05 | 0.05 | 82 | 1015.2 |
| 20260505052919 | 12 | 244 | 9.7 | 17.7 | 0.05 | 0.05 | 0.05 | 82 | 1015.2 |
| 20260505052425 | 12 | 239 | 4.8 | 9.7 | 0.05 | 0.05 | 0.05 | 82 | 1015.2 |
| 20260505051933 | 12 | 213 | 4.8 | 9.7 | 0.05 | 0.05 | 0.05 | 82 | 1015.1 |
| 20260505051421 | 12 | 244 | 4.8 | 8.0 | 0.03 | 0.03 | 0.03 | 82 | 1015.2 |
| 20260505050927 | 12 | 247 | 4.8 | 16.1 | 0.03 | 0.03 | 0.03 | 81 | 1015.3 |
| 20260505050430 | 12 | 227 | 6.4 | 16.1 | 0.03 | 0.03 | 0.03 | 81 | 1015.5 |
| 20260505041429 | 12 | 299 | 8.0 | 20.9 | 0.00 | 0.00 | 0.00 | 76 | 1015.8 |
| 20260505040936 | 12 | 273 | 6.4 | 22.5 | 0.00 | 0.00 | 0.00 | 76 | 1015.5 |
| 20260505040450 | 12 | 289 | 8.0 | 24.1 | 0.00 | 0.00 | 0.00 | 75 | 1015.3 |
| 20260505035938 | 12 | 308 | 9.7 | 24.1 | 0.00 | 0.00 | 0.00 | 75 | 1015.2 |
| 20260505035452 | 12 | 263 | 12.9 | 24.1 | 0.00 | 0.00 | 0.00 | 75 | 1015.1 |
| 20260505034919 | 13 | 228 | 14.5 | 24.1 | 0.00 | 0.00 | 0.00 | 75 | 1014.9 |
| 20260505034427 | 13 | 293 | 9.7 | 24.1 | 0.00 | 0.00 | 0.00 | 75 | 1014.8 |
| 20260505033933 | 13 | 242 | 11.3 | 22.5 | 0.00 | 0.00 | 0.00 | 76 | 1014.7 |
| 20260505033421 | 13 | 273 | 8.0 | 22.5 | 0.00 | 0.00 | 0.00 | 76 | 1014.8 |
| 20260505032928 | 13 | 308 | 11.3 | 17.7 | 0.00 | 0.00 | 0.00 | 77 | 1014.8 |
| 20260505032439 | 13 | 243 | 8.0 | 20.9 | 0.00 | 0.00 | 0.00 | 77 | 1014.7 |
| 20260505031951 | 13 | 282 | 9.7 | 20.9 | 0.00 | 0.00 | 0.00 | 77 | 1014.7 |
| 20260505031436 | 13 | 225 | 8.0 | 20.9 | 0.00 | 0.00 | 0.00 | 78 | 1014.5 |
| 20260505030942 | 13 | 282 | 11.3 | 20.9 | 0.00 | 0.00 | 0.00 | 78 | 1014.5 |
| 20260505030427 | 13 | 263 | 9.7 | 16.1 | 0.00 | 0.00 | 0.00 | 79 | 1014.5 |
| 20260505025934 | 13 | 275 | 9.7 | 16.1 | 0.00 | 0.00 | 0.00 | 79 | 1014.5 |
| 20260505025420 | 13 | 268 | 4.8 | 14.5 | 0.00 | 0.00 | 0.00 | 80 | 1014.6 |
| 20260505024947 | 13 | 295 | 6.4 | 16.1 | 0.00 | 0.00 | 0.00 | 79 | 1014.7 |
| 20260505024430 | 13 | 22 | 9.7 | 16.1 | 0.00 | 0.00 | 0.00 | 79 | 1014.7 |
| 20260505023918 | 13 | 218 | 8.0 | 20.9 | 0.00 | 0.00 | 0.00 | 78 | 1014.7 |
| 20260505023423 | 13 | 291 | 11.3 | 25.7 | 0.00 | 0.00 | 0.00 | 78 | 1014.7 |
| 20260505022928 | 13 | 206 | 9.7 | 25.7 | 0.00 | 0.00 | 0.00 | 78 | 1014.7 |
| 20260505022435 | 13 | 270 | 14.5 | 27.4 | 0.00 | 0.00 | 0.00 | 78 | 1014.5 |
| 20260505021922 | 13 | 271 | 14.5 | 27.4 | 0.00 | 0.00 | 0.00 | 79 | 1014.5 |
| 20260505021430 | 13 | 258 | 16.1 | 25.7 | 0.00 | 0.00 | 0.00 | 79 | 1014.6 |
| 20260505020919 | 13 | 270 | 16.1 | 25.7 | 0.00 | 0.00 | 0.00 | 80 | 1014.6 |
| 20260505020422 | 13 | 242 | 9.7 | 19.3 | 0.00 | 0.00 | 0.00 | 80 | 1014.6 |
| 20260505015928 | 13 | 17 | 9.7 | 22.5 | 0.00 | 0.00 | 0.00 | 79 | 1014.7 |
| 20260505015436 | 13 | 282 | 11.3 | 29.0 | 0.00 | 0.00 | 0.00 | 79 | 1014.8 |
| 20260505014942 | 13 | 264 | 12.9 | 29.0 | 0.00 | 0.00 | 0.00 | 79 | 1014.9 |
| 20260505014429 | 13 | 259 | 12.9 | 25.7 | 0.00 | 0.00 | 0.00 | 79 | 1015.0 |
| 20260505013917 | 13 | 277 | 16.1 | 25.7 | 0.00 | 0.00 | 0.00 | 79 | 1014.9 |
| 20260505013440 | 13 | 275 | 12.9 | 27.4 | 0.00 | 0.00 | 0.00 | 79 | 1015.0 |
| 20260505012952 | 13 | 270 | 17.7 | 32.2 | 0.00 | 0.00 | 0.00 | 79 | 1015.0 |
| 20260505012420 | 13 | 298 | 19.3 | 32.2 | 0.00 | 0.00 | 0.00 | 79 | 1014.9 |
| 20260505011928 | 14 | 254 | 11.3 | 25.7 | 0.00 | 0.00 | 0.00 | 79 | 1014.9 |
| 20260505011436 | 14 | 296 | 14.5 | 25.7 | 0.00 | 0.00 | 0.00 | 79 | 1014.9 |
| 20260505010943 | 14 | 263 | 11.3 | 24.1 | 0.00 | 0.00 | 0.00 | 79 | 1015.0 |
| 20260505010430 | 14 | 282 | 16.1 | 25.7 | 0.00 | 0.00 | 0.00 | 79 | 1015.0 |
| 20260505005930 | 14 | 292 | 14.5 | 30.6 | 0.00 | 0.00 | 0.00 | 79 | 1015.1 |
| 20260505005416 | 14 | 277 | 11.3 | 30.6 | 0.00 | 0.00 | 0.00 | 79 | 1015.2 |
| 20260505004923 | 14 | 273 | 12.9 | 22.5 | 0.00 | 0.00 | 0.00 | 79 | 1015.1 |
| 20260505004428 | 14 | 270 | 12.9 | 27.4 | 0.00 | 0.00 | 0.00 | 79 | 1015.2 |
| 20260505003934 | 14 | 271 | 12.9 | 27.4 | 0.00 | 0.00 | 0.00 | 79 | 1015.3 |
| 20260505003419 | 14 | 277 | 8.0 | 24.1 | 0.00 | 0.00 | 0.00 | 79 | 1015.3 |
| 20260505002946 | 14 | 273 | 12.9 | 25.7 | 0.00 | 0.00 | 0.00 | 78 | 1015.2 |
| 20260505002427 | 14 | 240 | 14.5 | 29.0 | 0.00 | 0.00 | 0.00 | 78 | 1015.3 |
| 20260505001935 | 14 | 287 | 16.1 | 29.0 | 0.00 | 0.00 | 0.00 | 78 | 1015.4 |
| 20260505001442 | 14 | 243 | 12.9 | 32.2 | 0.00 | 0.00 | 0.00 | 78 | 1015.3 |
| 20260505000927 | 14 | 277 | 16.1 | 32.2 | 0.00 | 0.00 | 0.00 | 77 | 1015.3 |
| 20260505000435 | 15 | 305 | 14.5 | 24.1 | 0.00 | 0.00 | 0.00 | 77 | 1015.3 |
| 20260504235923 | 15 | 151 | 11.3 | 24.1 | 0.00 | 0.00 | 0.00 | 77 | 1015.2 |
| 20260504235449 | 15 | 284 | 8.0 | 20.9 | 0.00 | 0.00 | 0.00 | 77 | 1015.3 |
| 20260504234930 | 15 | 262 | 9.7 | 22.5 | 0.00 | 0.00 | 0.00 | 77 | 1015.2 |
| 20260504234417 | 15 | 261 | 11.3 | 22.5 | 0.00 | 0.00 | 0.00 | 77 | 1015.2 |